| time (UTC) | temp F | wind direction | speed MPH | gust MPH | rain 1hr in | rain 24hr in | rain mn in | humidity % | barometer mb |
| 20260902204714 | 80 | 5 | 9.0 | 11.0 | 0.09 | 1.10 | 1.10 | 93 | 1014.8 |
| 20260902204218 | 80 | 19 | 7.0 | 12.0 | 0.09 | 1.10 | 1.10 | 93 | 1014.7 |
| 20260902203743 | 80 | 29 | 8.0 | 12.0 | 0.09 | 1.10 | 1.10 | 93 | 1014.8 |
| 20260902203246 | 80 | 30 | 8.0 | 11.0 | 0.09 | 1.10 | 1.10 | 93 | 1014.8 |
| 20260902202709 | 80 | 23 | 7.0 | 10.0 | 0.23 | 1.10 | 1.10 | 93 | 1014.9 |
| 20260902202213 | 80 | 25 | 8.0 | 10.0 | 0.49 | 1.10 | 1.10 | 92 | 1015.0 |
| 20260902201717 | 80 | 14 | 5.0 | 12.0 | 0.49 | 1.10 | 1.10 | 92 | 1015.1 |
| 20260902201219 | 80 | 35 | 8.0 | 13.0 | 0.40 | 1.01 | 1.01 | 92 | 1015.0 |
| 20260902200736 | 80 | 50 | 10.0 | 13.0 | 0.40 | 1.01 | 1.01 | 92 | 1014.8 |
| 20260902200219 | 80 | 35 | 8.0 | 11.0 | 0.40 | 1.01 | 1.01 | 91 | 1014.7 |
| 20260902195723 | 80 | 25 | 9.0 | 11.0 | 0.40 | 1.01 | 1.01 | 91 | 1014.7 |
| 20260902195208 | 80 | 24 | 9.0 | 11.0 | 0.40 | 1.01 | 1.01 | 91 | 1014.8 |
| 20260902194713 | 80 | 28 | 9.0 | 11.0 | 0.40 | 1.01 | 1.01 | 90 | 1014.8 |
| 20260902194221 | 80 | 32 | 9.0 | 12.0 | 0.40 | 1.01 | 1.01 | 91 | 1014.8 |
| 20260902193744 | 80 | 34 | 10.0 | 12.0 | 0.40 | 1.01 | 1.01 | 91 | 1014.8 |
| 20260902193208 | 81 | 257 | 3.0 | 17.0 | 0.40 | 1.01 | 1.01 | 91 | 1014.7 |
| 20260902192712 | 82 | 110 | 4.0 | 28.0 | 0.26 | 0.87 | 0.87 | 89 | 1015.0 |
| 20260902192216 | 84 | 54 | 12.0 | 28.0 | 0.00 | 0.61 | 0.61 | 88 | 1014.8 |
| 20260902191740 | 84 | 354 | 8.0 | 11.0 | 0.00 | 0.61 | 0.61 | 88 | 1014.6 |
| 20260902191224 | 84 | 2 | 7.0 | 9.0 | 0.00 | 0.61 | 0.61 | 88 | 1014.6 |
| 20260902190709 | 84 | 347 | 6.0 | 12.0 | 0.00 | 0.61 | 0.61 | 88 | 1014.6 |
| 20260902190233 | 84 | 12 | 9.0 | 12.0 | 0.00 | 0.61 | 0.61 | 86 | 1014.6 |
| 20260902185716 | 83 | 352 | 7.0 | 12.0 | 0.00 | 0.61 | 0.61 | 88 | 1014.7 |
| 20260902185220 | 83 | 6 | 10.0 | 12.0 | 0.00 | 0.61 | 0.61 | 89 | 1014.9 |
| 20260902184725 | 83 | 343 | 6.0 | 10.0 | 0.00 | 0.61 | 0.61 | 90 | 1014.9 |
| 20260902184208 | 83 | 325 | 7.0 | 9.0 | 0.00 | 0.61 | 0.61 | 91 | 1014.9 |
| 20260902183717 | 83 | 334 | 6.0 | 8.0 | 0.00 | 0.61 | 0.61 | 91 | 1015.0 |
| 20260902183221 | 82 | 329 | 6.0 | 8.0 | 0.00 | 0.61 | 0.61 | 91 | 1015.2 |
| 20260902182726 | 83 | 358 | 5.0 | 11.0 | 0.00 | 0.61 | 0.61 | 91 | 1015.3 |
| 20260902182210 | 82 | 324 | 7.0 | 11.0 | 0.01 | 0.61 | 0.61 | 91 | 1015.4 |
| 20260902181734 | 82 | 336 | 7.0 | 12.0 | 0.01 | 0.61 | 0.61 | 91 | 1015.4 |
| 20260902181217 | 83 | 323 | 9.0 | 12.0 | 0.01 | 0.61 | 0.61 | 91 | 1015.4 |
| 20260902180713 | 83 | 324 | 8.0 | 10.0 | 0.01 | 0.61 | 0.61 | 90 | 1015.5 |
| 20260902180218 | 83 | 326 | 7.0 | 9.0 | 0.01 | 0.61 | 0.61 | 90 | 1015.6 |
| 20260902175740 | 83 | 337 | 5.0 | 10.0 | 0.01 | 0.61 | 0.61 | 90 | 1015.7 |
| 20260902175224 | 83 | 325 | 5.0 | 10.0 | 0.02 | 0.61 | 0.61 | 90 | 1015.6 |
| 20260902174708 | 83 | 325 | 6.0 | 7.0 | 0.18 | 0.61 | 0.61 | 90 | 1015.7 |
| 20260902174213 | 82 | 341 | 3.0 | 8.0 | 0.26 | 0.61 | 0.61 | 90 | 1015.8 |
| 20260902173717 | 82 | 306 | 6.0 | 8.0 | 0.27 | 0.61 | 0.61 | 91 | 1015.8 |
| 20260902173226 | 82 | 311 | 5.0 | 8.0 | 0.28 | 0.61 | 0.61 | 91 | 1015.9 |
| 20260902172710 | 82 | 328 | 5.0 | 8.0 | 0.28 | 0.61 | 0.61 | 91 | 1016.0 |
| 20260902172235 | 81 | 324 | 5.0 | 8.0 | 0.27 | 0.60 | 0.60 | 91 | 1015.9 |
| 20260902171718 | 81 | 323 | 7.0 | 9.0 | 0.27 | 0.60 | 0.60 | 91 | 1016.0 |
| 20260902171238 | 81 | 345 | 6.0 | 8.0 | 0.27 | 0.60 | 0.60 | 91 | 1016.1 |
| 20260902170739 | 80 | 325 | 5.0 | 11.0 | 0.27 | 0.60 | 0.60 | 91 | 1016.2 |
| 20260902170223 | 80 | 314 | 8.0 | 11.0 | 0.27 | 0.60 | 0.60 | 92 | 1016.3 |
| 20260902165728 | 79 | 317 | 5.0 | 11.0 | 0.27 | 0.60 | 0.60 | 91 | 1016.3 |
| 20260902165211 | 80 | 49 | 7.0 | 17.0 | 0.24 | 0.57 | 0.57 | 91 | 1016.6 |
| 20260902164715 | 81 | 43 | 10.0 | 18.0 | 0.10 | 0.43 | 0.43 | 90 | 1016.5 |
| 20260902164219 | 82 | 42 | 11.0 | 18.0 | 0.02 | 0.35 | 0.35 | 89 | 1016.4 |
| 20260902163724 | 83 | 298 | 6.0 | 8.0 | 0.01 | 0.34 | 0.34 | 89 | 1016.2 |
| 20260902163208 | 83 | 291 | 5.0 | 7.0 | 0.00 | 0.33 | 0.33 | 89 | 1016.1 |
| 20260902162713 | 84 | 301 | 4.0 | 9.0 | 0.00 | 0.33 | 0.33 | 88 | 1016.1 |
| 20260902162238 | 84 | 48 | 6.0 | 11.0 | 0.00 | 0.33 | 0.33 | 86 | 1016.1 |
| 20260902161724 | 84 | 46 | 9.0 | 11.0 | 0.00 | 0.33 | 0.33 | 87 | 1016.1 |
| 20260902161208 | 83 | 50 | 5.0 | 8.0 | 0.00 | 0.33 | 0.33 | 87 | 1016.2 |
| 20260902160725 | 83 | 55 | 4.0 | 7.0 | 0.12 | 0.33 | 0.33 | 87 | 1016.3 |
| 20260902160209 | 83 | 57 | 3.0 | 8.0 | 0.31 | 0.33 | 0.33 | 88 | 1016.5 |
| 20260902155715 | 82 | 89 | 4.0 | 9.0 | 0.31 | 0.33 | 0.33 | 88 | 1016.8 |
| 20260902155240 | 82 | 45 | 7.0 | 9.0 | 0.31 | 0.33 | 0.33 | 90 | 1016.8 |
| 20260902154724 | 81 | 33 | 7.0 | 12.0 | 0.31 | 0.33 | 0.33 | 90 | 1016.8 |
| 20260902154207 | 81 | 44 | 8.0 | 13.0 | 0.31 | 0.33 | 0.33 | 90 | 1016.7 |
| 20260902153711 | 80 | 30 | 9.0 | 14.0 | 0.32 | 0.33 | 0.33 | 90 | 1016.9 |
| 20260902153214 | 81 | 29 | 9.0 | 14.0 | 0.33 | 0.33 | 0.33 | 91 | 1017.0 |
| 20260902152719 | 80 | 42 | 7.0 | 13.0 | 0.33 | 0.33 | 0.33 | 91 | 1017.1 |
| 20260902152224 | 80 | 53 | 10.0 | 13.0 | 0.33 | 0.33 | 0.33 | 91 | 1017.2 |
| 20260902151709 | 80 | 53 | 10.0 | 16.0 | 0.33 | 0.33 | 0.33 | 92 | 1017.2 |
| 20260902151217 | 80 | 61 | 8.0 | 22.0 | 0.33 | 0.33 | 0.33 | 90 | 1017.3 |
| 20260902150722 | 81 | 88 | 19.0 | 22.0 | 0.16 | 0.16 | 0.16 | 90 | 1017.2 |
| 20260902150227 | 82 | 66 | 6.0 | 9.0 | 0.02 | 0.02 | 0.02 | 89 | 1016.8 |
| 20260902145712 | 83 | 56 | 7.0 | 9.0 | 0.02 | 0.02 | 0.02 | 89 | 1016.8 |
| 20260902145238 | 82 | 37 | 4.0 | 8.0 | 0.02 | 0.02 | 0.02 | 89 | 1016.7 |
| 20260902144721 | 82 | 43 | 4.0 | 6.0 | 0.02 | 0.02 | 0.02 | 90 | 1016.7 |
| 20260902144226 | 82 | 53 | 3.0 | 9.0 | 0.02 | 0.02 | 0.02 | 89 | 1016.8 |
| 20260902143730 | 82 | 39 | 6.0 | 10.0 | 0.01 | 0.01 | 0.01 | 89 | 1016.7 |
| 20260902143215 | 82 | 37 | 8.0 | 12.0 | 0.00 | 0.00 | 0.00 | 89 | 1016.7 |
| 20260902142719 | 83 | 33 | 9.0 | 12.0 | 0.00 | 0.00 | 0.00 | 88 | 1016.7 |
| 20260902142223 | 83 | 44 | 10.0 | 13.0 | 0.00 | 0.00 | 0.00 | 89 | 1016.7 |
| 20260902141720 | 82 | 40 | 8.0 | 12.0 | 0.00 | 0.00 | 0.00 | 90 | 1016.7 |
| 20260902141212 | 82 | 23 | 5.0 | 8.0 | 0.00 | 0.00 | 0.00 | 90 | 1016.7 |
| 20260902140724 | 82 | 35 | 6.0 | 9.0 | 0.00 | 0.00 | 0.00 | 90 | 1016.7 |
| 20260902140212 | 82 | 29 | 7.0 | 9.0 | 0.00 | 0.00 | 0.00 | 90 | 1016.7 |
| 20260902135717 | 82 | 33 | 7.0 | 9.0 | 0.00 | 0.00 | 0.00 | 90 | 1016.6 |
| 20260902135221 | 82 | 42 | 7.0 | 9.0 | 0.00 | 0.00 | 0.00 | 90 | 1016.7 |
| 20260902134727 | 82 | 37 | 8.0 | 8.0 | 0.00 | 0.00 | 0.00 | 90 | 1016.7 |
| 20260902134230 | 82 | 45 | 6.0 | 9.0 | 0.00 | 0.00 | 0.00 | 89 | 1016.7 |
| 20260902133735 | 82 | 49 | 7.0 | 11.0 | 0.00 | 0.00 | 0.00 | 90 | 1016.7 |
| 20260902133218 | 82 | 44 | 9.0 | 11.0 | 0.00 | 0.00 | 0.00 | 90 | 1016.7 |
| 20260902132743 | 82 | 53 | 8.0 | 10.0 | 0.00 | 0.00 | 0.00 | 90 | 1016.7 |
| 20260902132227 | 82 | 41 | 8.0 | 10.0 | 0.00 | 0.00 | 0.00 | 90 | 1016.7 |
| 20260902131712 | 82 | 46 | 7.0 | 9.0 | 0.00 | 0.00 | 0.00 | 90 | 1016.7 |
| 20260902131217 | 82 | 25 | 6.0 | 9.0 | 0.00 | 0.00 | 0.00 | 90 | 1016.7 |
| 20260902130722 | 81 | 35 | 6.0 | 10.0 | 0.00 | 0.00 | 0.00 | 91 | 1016.7 |
| 20260902130227 | 81 | 39 | 6.0 | 10.0 | 0.00 | 0.00 | 0.00 | 91 | 1016.7 |
| 20260902125716 | 81 | 44 | 6.0 | 9.0 | 0.00 | 0.00 | 0.00 | 91 | 1016.7 |
| 20260902125221 | 81 | 38 | 7.0 | 9.0 | 0.00 | 0.00 | 0.00 | 91 | 1016.7 |
| 20260902124725 | 81 | 39 | 7.0 | 9.0 | 0.00 | 0.00 | 0.00 | 92 | 1016.6 |
| 20260902124209 | 81 | 37 | 6.0 | 10.0 | 0.00 | 0.00 | 0.00 | 92 | 1016.5 |
| 20260902123715 | 80 | 25 | 7.0 | 10.0 | 0.00 | 0.00 | 0.00 | 92 | 1016.5 |
| 20260902123220 | 80 | 29 | 6.0 | 7.0 | 0.00 | 0.00 | 0.00 | 92 | 1016.5 |
| 20260902122724 | 80 | 32 | 5.0 | 7.0 | 0.00 | 0.00 | 0.00 | 92 | 1016.5 |
| 20260902122210 | 80 | 36 | 6.0 | 9.0 | 0.00 | 0.00 | 0.00 | 92 | 1016.5 |
| 20260902121715 | 80 | 15 | 7.0 | 9.0 | 0.00 | 0.00 | 0.00 | 92 | 1016.4 |
| 20260902121220 | 80 | 33 | 7.0 | 9.0 | 0.00 | 0.00 | 0.00 | 92 | 1016.4 |
| 20260902120717 | 80 | 28 | 7.0 | 10.0 | 0.00 | 0.00 | 0.00 | 93 | 1016.5 |
| 20260902120242 | 80 | 28 | 8.0 | 10.0 | 0.00 | 0.00 | 0.00 | 93 | 1016.6 |
| 20260902115710 | 80 | 42 | 6.0 | 9.0 | 0.00 | 0.00 | 0.00 | 93 | 1016.5 |
| 20260902115215 | 80 | 49 | 7.0 | 9.0 | 0.00 | 0.00 | 0.00 | 93 | 1016.4 |
| 20260902114720 | 79 | 47 | 7.0 | 11.0 | 0.00 | 0.00 | 0.00 | 93 | 1016.4 |
| 20260902114244 | 79 | 34 | 7.0 | 12.0 | 0.00 | 0.00 | 0.00 | 93 | 1016.3 |
| 20260902113748 | 79 | 32 | 10.0 | 12.0 | 0.00 | 0.00 | 0.00 | 93 | 1016.3 |
| 20260902113211 | 79 | 35 | 7.0 | 10.0 | 0.00 | 0.00 | 0.00 | 94 | 1016.3 |
| 20260902112716 | 79 | 28 | 7.0 | 9.0 | 0.00 | 0.00 | 0.00 | 94 | 1016.3 |
| 20260902112221 | 79 | 21 | 6.0 | 10.0 | 0.00 | 0.00 | 0.00 | 94 | 1016.3 |
| 20260902111726 | 79 | 35 | 7.0 | 10.0 | 0.00 | 0.00 | 0.00 | 94 | 1016.2 |
| 20260902111211 | 79 | 31 | 7.0 | 10.0 | 0.00 | 0.00 | 0.00 | 94 | 1016.2 |
| 20260902110715 | 79 | 37 | 6.0 | 10.0 | 0.00 | 0.00 | 0.00 | 94 | 1016.2 |
| 20260902110220 | 79 | 31 | 7.0 | 10.0 | 0.00 | 0.00 | 0.00 | 94 | 1016.2 |
| 20260902105709 | 79 | 32 | 7.0 | 9.0 | 0.00 | 0.01 | 0.00 | 94 | 1016.2 |
| 20260902105213 | 80 | 30 | 7.0 | 9.0 | 0.00 | 0.01 | 0.00 | 94 | 1016.2 |
| 20260902104738 | 79 | 25 | 7.0 | 9.0 | 0.00 | 0.01 | 0.00 | 94 | 1016.2 |
| 20260902104222 | 79 | 18 | 7.0 | 9.0 | 0.00 | 0.01 | 0.00 | 94 | 1016.1 |
| 20260902103725 | 79 | 29 | 7.0 | 10.0 | 0.00 | 0.01 | 0.00 | 94 | 1016.0 |
| 20260902103209 | 79 | 18 | 7.0 | 10.0 | 0.00 | 0.01 | 0.00 | 94 | 1015.9 |
| 20260902102714 | 79 | 34 | 7.0 | 10.0 | 0.00 | 0.01 | 0.00 | 94 | 1015.9 |
| 20260902102239 | 79 | 4 | 7.0 | 10.0 | 0.00 | 0.01 | 0.00 | 94 | 1015.9 |
| 20260902101723 | 79 | 21 | 7.0 | 11.0 | 0.00 | 0.01 | 0.00 | 94 | 1015.8 |
| 20260902101208 | 79 | 23 | 7.0 | 11.0 | 0.00 | 0.01 | 0.00 | 94 | 1015.7 |
| 20260902100725 | 79 | 20 | 8.0 | 10.0 | 0.00 | 0.01 | 0.00 | 94 | 1015.7 |
| 20260902100210 | 79 | 32 | 8.0 | 10.0 | 0.00 | 0.01 | 0.00 | 93 | 1015.6 |
| 20260902095749 | 79 | 30 | 8.0 | 10.0 | 0.00 | 0.01 | 0.00 | 94 | 1015.7 |
| 20260902095212 | 79 | 9 | 7.0 | 10.0 | 0.00 | 0.01 | 0.00 | 93 | 1015.7 |
| 20260902094736 | 79 | 34 | 8.0 | 10.0 | 0.00 | 0.01 | 0.00 | 93 | 1015.6 |
| 20260902094219 | 79 | 28 | 8.0 | 10.0 | 0.00 | 0.01 | 0.00 | 94 | 1015.6 |
| 20260902093724 | 79 | 19 | 9.0 | 11.0 | 0.00 | 0.01 | 0.00 | 94 | 1015.5 |
| 20260902093209 | 79 | 35 | 7.0 | 11.0 | 0.00 | 0.01 | 0.00 | 94 | 1015.4 |
| 20260902092718 | 80 | 37 | 8.0 | 10.0 | 0.00 | 0.01 | 0.00 | 93 | 1015.4 |
| 20260902092243 | 80 | 37 | 8.0 | 10.0 | 0.00 | 0.01 | 0.00 | 93 | 1015.3 |
| 20260902091727 | 80 | 38 | 9.0 | 10.0 | 0.00 | 0.01 | 0.00 | 93 | 1015.3 |
| 20260902091212 | 80 | 32 | 8.0 | 9.0 | 0.00 | 0.01 | 0.00 | 93 | 1015.3 |
| 20260902090716 | 80 | 29 | 8.0 | 10.0 | 0.00 | 0.01 | 0.00 | 93 | 1015.2 |
| 20260902090222 | 80 | 26 | 7.0 | 10.0 | 0.00 | 0.01 | 0.00 | 94 | 1015.1 |
| 20260902085727 | 80 | 34 | 7.0 | 8.0 | 0.00 | 0.01 | 0.00 | 93 | 1015.1 |
| 20260902085210 | 80 | 29 | 7.0 | 9.0 | 0.00 | 0.01 | 0.00 | 93 | 1015.2 |
| 20260902084734 | 80 | 17 | 7.0 | 9.0 | 0.00 | 0.01 | 0.00 | 93 | 1015.1 |
| 20260902084218 | 80 | 29 | 7.0 | 10.0 | 0.00 | 0.01 | 0.00 | 93 | 1015.1 |
| 20260902083723 | 80 | 35 | 7.0 | 10.0 | 0.00 | 0.01 | 0.00 | 94 | 1015.3 |
| 20260902083227 | 79 | 32 | 7.0 | 9.0 | 0.00 | 0.01 | 0.00 | 94 | 1015.3 |
| 20260902082715 | 80 | 31 | 7.0 | 10.0 | 0.00 | 0.01 | 0.00 | 94 | 1015.2 |
| 20260902082220 | 79 | 33 | 7.0 | 10.0 | 0.00 | 0.01 | 0.00 | 94 | 1015.3 |
| 20260902081745 | 80 | 35 | 7.0 | 9.0 | 0.00 | 0.01 | 0.00 | 93 | 1015.3 |
| 20260902081209 | 80 | 25 | 7.0 | 9.0 | 0.00 | 0.01 | 0.00 | 93 | 1015.3 |
| 20260902080726 | 80 | 32 | 7.0 | 9.0 | 0.00 | 0.01 | 0.00 | 93 | 1015.3 |
| 20260902080229 | 80 | 30 | 6.0 | 8.0 | 0.00 | 0.01 | 0.00 | 93 | 1015.3 |
| 20260902075713 | 80 | 24 | 6.0 | 8.0 | 0.00 | 0.01 | 0.00 | 93 | 1015.4 |
| 20260902075217 | 80 | 21 | 7.0 | 9.0 | 0.00 | 0.01 | 0.00 | 93 | 1015.5 |
| 20260902074722 | 80 | 6 | 7.0 | 9.0 | 0.00 | 0.01 | 0.00 | 93 | 1015.5 |
| 20260902074226 | 80 | 24 | 7.0 | 8.0 | 0.00 | 0.01 | 0.00 | 93 | 1015.5 |
| 20260902073711 | 80 | 18 | 6.0 | 8.0 | 0.00 | 0.01 | 0.00 | 93 | 1015.4 |
| 20260902073216 | 80 | 18 | 6.0 | 9.0 | 0.00 | 0.01 | 0.00 | 93 | 1015.3 |
| 20260902072721 | 80 | 3 | 7.0 | 9.0 | 0.00 | 0.01 | 0.00 | 93 | 1015.4 |
| 20260902072209 | 80 | 4 | 7.0 | 9.0 | 0.00 | 0.01 | 0.00 | 93 | 1015.4 |
| 20260902071714 | 80 | 16 | 7.0 | 9.0 | 0.00 | 0.01 | 0.00 | 93 | 1015.5 |
| 20260902071218 | 80 | 9 | 7.0 | 9.0 | 0.00 | 0.01 | 0.00 | 93 | 1015.5 |
| 20260902070743 | 80 | 2 | 7.0 | 9.0 | 0.00 | 0.01 | 0.00 | 93 | 1015.5 |
| 20260902070227 | 80 | 18 | 6.0 | 9.0 | 0.00 | 0.01 | 0.00 | 93 | 1015.5 |
| 20260902065712 | 80 | 14 | 5.0 | 8.0 | 0.00 | 0.01 | 0.00 | 93 | 1015.5 |
| 20260902065237 | 80 | 2 | 5.0 | 8.0 | 0.00 | 0.01 | 0.00 | 93 | 1015.5 |
| 20260902064721 | 80 | 4 | 5.0 | 7.0 | 0.00 | 0.01 | 0.00 | 93 | 1015.5 |
| 20260902064245 | 80 | 338 | 5.0 | 8.0 | 0.00 | 0.01 | 0.00 | 93 | 1015.6 |
| 20260902063709 | 80 | 6 | 5.0 | 9.0 | 0.00 | 0.01 | 0.00 | 93 | 1015.6 |
| 20260902063215 | 80 | 357 | 5.0 | 9.0 | 0.00 | 0.01 | 0.00 | 93 | 1015.5 |
| 20260902062719 | 80 | 15 | 4.0 | 6.0 | 0.00 | 0.01 | 0.00 | 93 | 1015.5 |
| 20260902062208 | 81 | 14 | 4.0 | 8.0 | 0.00 | 0.01 | 0.00 | 93 | 1015.6 |
| 20260902061733 | 80 | 28 | 6.0 | 8.0 | 0.00 | 0.01 | 0.00 | 93 | 1015.7 |
| 20260902061217 | 80 | 10 | 6.0 | 8.0 | 0.00 | 0.01 | 0.00 | 93 | 1015.6 |
| 20260902060733 | 80 | 25 | 6.0 | 8.0 | 0.00 | 0.01 | 0.00 | 93 | 1015.7 |
| 20260902060217 | 80 | 11 | 5.0 | 7.0 | 0.00 | 0.01 | 0.00 | 93 | 1015.7 |
| 20260902055740 | 80 | 23 | 5.0 | 7.0 | 0.00 | 0.01 | 0.00 | 93 | 1015.8 |
| 20260902055224 | 80 | 25 | 5.0 | 7.0 | 0.00 | 0.01 | 0.00 | 93 | 1015.8 |
| 20260902054708 | 80 | 30 | 4.0 | 6.0 | 0.00 | 0.01 | 0.00 | 93 | 1015.8 |
| 20260902054212 | 80 | 14 | 5.0 | 7.0 | 0.00 | 0.01 | 0.00 | 93 | 1015.7 |
| 20260902053717 | 80 | 22 | 5.0 | 7.0 | 0.00 | 0.01 | 0.00 | 93 | 1015.7 |
| 20260902053222 | 80 | 28 | 4.0 | 8.0 | 0.00 | 0.01 | 0.00 | 93 | 1015.8 |
| 20260902052746 | 80 | 21 | 5.0 | 8.0 | 0.00 | 0.01 | 0.00 | 93 | 1015.7 |
| 20260902052230 | 80 | 23 | 6.0 | 8.0 | 0.00 | 0.01 | 0.00 | 92 | 1015.8 |
| 20260902051714 | 80 | 30 | 6.0 | 8.0 | 0.00 | 0.01 | 0.00 | 92 | 1015.7 |
| 20260902051219 | 80 | 31 | 6.0 | 8.0 | 0.00 | 0.01 | 0.00 | 93 | 1015.8 |
| 20260902050723 | 80 | 25 | 7.0 | 8.0 | 0.00 | 0.01 | 0.00 | 92 | 1015.8 |
| 20260902050210 | 80 | 25 | 6.0 | 6.0 | 0.00 | 0.01 | 0.00 | 93 | 1015.8 |
| 20260902045715 | 80 | 32 | 5.0 | 6.0 | 0.00 | 0.01 | 0.00 | 93 | 1015.9 |
| 20260902045219 | 80 | 36 | 4.0 | 6.0 | 0.00 | 0.01 | 0.00 | 92 | 1015.9 |
| 20260902044724 | 80 | 40 | 4.0 | 5.0 | 0.00 | 0.01 | 0.00 | 92 | 1015.8 |
| 20260902044229 | 80 | 51 | 3.0 | 5.0 | 0.00 | 0.01 | 0.00 | 92 | 1015.9 |
| 20260902043714 | 80 | 55 | 3.0 | 5.0 | 0.00 | 0.01 | 0.00 | 92 | 1016.0 |
| 20260902043238 | 80 | 51 | 3.0 | 5.0 | 0.00 | 0.01 | 0.00 | 92 | 1016.0 |
| 20260902042722 | 80 | 45 | 4.0 | 6.0 | 0.00 | 0.01 | 0.00 | 92 | 1016.1 |
| 20260902042227 | 80 | 52 | 5.0 | 6.0 | 0.00 | 0.01 | 0.00 | 92 | 1016.2 |
| 20260902041711 | 80 | 52 | 5.0 | 7.0 | 0.00 | 0.01 | 0.00 | 92 | 1016.1 |
| 20260902041215 | 80 | 54 | 6.0 | 7.0 | 0.00 | 0.01 | 0.00 | 92 | 1016.2 |
| 20260902040733 | 80 | 50 | 5.0 | 9.0 | 0.00 | 0.01 | 0.00 | 92 | 1016.2 |
| 20260902040224 | 80 | 42 | 7.0 | 9.0 | 0.00 | 0.01 | 0.00 | 91 | 1016.3 |
| 20260902035708 | 80 | 49 | 6.0 | 7.0 | 0.00 | 0.01 | 0.01 | 91 | 1016.3 |
| 20260902035233 | 80 | 55 | 5.0 | 6.0 | 0.00 | 0.01 | 0.01 | 92 | 1016.2 |
| 20260902034716 | 80 | 56 | 4.0 | 6.0 | 0.00 | 0.01 | 0.01 | 92 | 1016.3 |
| 20260902034241 | 80 | 54 | 4.0 | 6.0 | 0.00 | 0.01 | 0.01 | 92 | 1016.3 |
| 20260902033708 | 80 | 56 | 4.0 | 6.0 | 0.00 | 0.01 | 0.01 | 92 | 1016.3 |
| 20260902033212 | 80 | 55 | 4.0 | 6.0 | 0.00 | 0.01 | 0.01 | 92 | 1016.3 |
| 20260902032737 | 80 | 56 | 5.0 | 6.0 | 0.00 | 0.01 | 0.01 | 91 | 1016.4 |
| 20260902032220 | 80 | 57 | 5.0 | 6.0 | 0.00 | 0.01 | 0.01 | 92 | 1016.4 |
| 20260902031725 | 80 | 58 | 5.0 | 6.0 | 0.00 | 0.01 | 0.01 | 91 | 1016.5 |
| 20260902031209 | 80 | 56 | 5.0 | 6.0 | 0.00 | 0.01 | 0.01 | 91 | 1016.5 |
| 20260902030713 | 80 | 60 | 4.0 | 5.0 | 0.00 | 0.01 | 0.01 | 91 | 1016.6 |
| 20260902030217 | 80 | 56 | 4.0 | 6.0 | 0.00 | 0.01 | 0.01 | 91 | 1016.6 |
| 20260902025721 | 80 | 56 | 5.0 | 7.0 | 0.00 | 0.01 | 0.01 | 91 | 1016.7 |
| 20260902025225 | 80 | 52 | 5.0 | 7.0 | 0.00 | 0.01 | 0.01 | 91 | 1016.7 |
| 20260902024709 | 80 | 53 | 5.0 | 6.0 | 0.00 | 0.01 | 0.01 | 91 | 1016.8 |
| 20260902024218 | 80 | 54 | 5.0 | 6.0 | 0.00 | 0.01 | 0.01 | 91 | 1016.8 |
| 20260902023721 | 80 | 59 | 4.0 | 5.0 | 0.00 | 0.01 | 0.01 | 91 | 1016.9 |
| 20260902023226 | 80 | 52 | 4.0 | 5.0 | 0.00 | 0.01 | 0.01 | 91 | 1017.0 |
| 20260902022711 | 80 | 55 | 4.0 | 6.0 | 0.00 | 0.01 | 0.01 | 90 | 1017.0 |
| 20260902022235 | 80 | 56 | 4.0 | 6.0 | 0.00 | 0.01 | 0.01 | 91 | 1016.9 |
| 20260902021719 | 80 | 58 | 4.0 | 5.0 | 0.00 | 0.01 | 0.01 | 90 | 1016.9 |
| 20260902021224 | 80 | 54 | 4.0 | 5.0 | 0.00 | 0.01 | 0.01 | 90 | 1016.9 |
| 20260902020721 | 80 | 52 | 4.0 | 5.0 | 0.00 | 0.01 | 0.01 | 90 | 1016.8 |
| 20260902020226 | 80 | 42 | 4.0 | 5.0 | 0.00 | 0.01 | 0.01 | 90 | 1016.8 |
| 20260902015709 | 80 | 53 | 3.0 | 6.0 | 0.00 | 0.01 | 0.01 | 90 | 1016.8 |
| 20260902015214 | 81 | 58 | 4.0 | 6.0 | 0.00 | 0.01 | 0.01 | 89 | 1016.8 |
| 20260902014719 | 81 | 56 | 4.0 | 6.0 | 0.00 | 0.01 | 0.01 | 89 | 1016.7 |
| 20260902014228 | 81 | 51 | 5.0 | 6.0 | 0.00 | 0.01 | 0.01 | 89 | 1016.7 |
| 20260902013710 | 81 | 54 | 5.0 | 6.0 | 0.00 | 0.01 | 0.01 | 89 | 1016.6 |
| 20260902013213 | 81 | 51 | 4.0 | 6.0 | 0.00 | 0.01 | 0.01 | 89 | 1016.5 |
| 20260902012718 | 81 | 51 | 5.0 | 6.0 | 0.00 | 0.01 | 0.01 | 88 | 1016.5 |
| 20260902012223 | 81 | 53 | 4.0 | 5.0 | 0.00 | 0.01 | 0.01 | 89 | 1016.4 |
| 20260902011708 | 81 | 50 | 4.0 | 5.0 | 0.00 | 0.01 | 0.01 | 88 | 1016.4 |
| 20260902011212 | 81 | 44 | 4.0 | 6.0 | 0.00 | 0.01 | 0.01 | 88 | 1016.3 |
| 20260902010738 | 81 | 46 | 5.0 | 6.0 | 0.00 | 0.01 | 0.01 | 88 | 1016.4 |
| 20260902010221 | 81 | 50 | 5.0 | 6.0 | 0.00 | 0.01 | 0.01 | 88 | 1016.3 |
| 20260902005726 | 81 | 54 | 4.0 | 6.0 | 0.00 | 0.01 | 0.01 | 88 | 1016.3 |
| 20260902005211 | 81 | 56 | 4.0 | 6.0 | 0.00 | 0.01 | 0.01 | 88 | 1016.2 |
| 20260902004720 | 81 | 56 | 4.0 | 6.0 | 0.00 | 0.01 | 0.01 | 87 | 1016.2 |
| 20260902004225 | 81 | 43 | 5.0 | 7.0 | 0.00 | 0.01 | 0.01 | 87 | 1016.2 |
| 20260902003710 | 82 | 49 | 5.0 | 7.0 | 0.00 | 0.01 | 0.01 | 88 | 1016.2 |
| 20260902003213 | 82 | 44 | 5.0 | 7.0 | 0.00 | 0.01 | 0.01 | 87 | 1016.1 |
| 20260902002718 | 82 | 31 | 5.0 | 7.0 | 0.00 | 0.01 | 0.01 | 87 | 1016.2 |
| 20260902002222 | 82 | 47 | 6.0 | 7.0 | 0.00 | 0.01 | 0.01 | 87 | 1016.2 |
| 20260902001747 | 82 | 52 | 5.0 | 7.0 | 0.00 | 0.01 | 0.01 | 87 | 1016.3 |
| 20260902001230 | 82 | 36 | 6.0 | 8.0 | 0.00 | 0.01 | 0.01 | 87 | 1016.3 |
| 20260902000724 | 82 | 49 | 6.0 | 8.0 | 0.00 | 0.01 | 0.01 | 86 | 1016.3 |
| 20260902000208 | 82 | 40 | 5.0 | 7.0 | 0.00 | 0.01 | 0.01 | 86 | 1016.3 |
| 20260901235713 | 82 | 51 | 5.0 | 9.0 | 0.00 | 0.01 | 0.01 | 86 | 1016.2 |
| 20260901235227 | 83 | 49 | 6.0 | 10.0 | 0.00 | 0.01 | 0.01 | 87 | 1016.3 |
| 20260901234708 | 83 | 58 | 8.0 | 10.0 | 0.00 | 0.01 | 0.01 | 86 | 1016.3 |
| 20260901234233 | 83 | 63 | 8.0 | 12.0 | 0.00 | 0.01 | 0.01 | 87 | 1016.2 |
| 20260901233717 | 83 | 88 | 9.0 | 12.0 | 0.00 | 0.01 | 0.01 | 86 | 1016.3 |
| 20260901233222 | 83 | 69 | 8.0 | 12.0 | 0.00 | 0.01 | 0.01 | 87 | 1016.2 |
| 20260901232710 | 83 | 70 | 9.0 | 10.0 | 0.00 | 0.01 | 0.01 | 87 | 1016.2 |
| 20260901232215 | 83 | 67 | 8.0 | 11.0 | 0.00 | 0.01 | 0.01 | 87 | 1016.1 |
| 20260901231719 | 83 | 68 | 7.0 | 9.0 | 0.00 | 0.01 | 0.01 | 86 | 1016.1 |
| 20260901231224 | 83 | 51 | 5.0 | 10.0 | 0.00 | 0.01 | 0.01 | 87 | 1016.1 |
| 20260901230708 | 83 | 50 | 8.0 | 10.0 | 0.00 | 0.01 | 0.01 | 86 | 1016.2 |
| 20260901230212 | 83 | 46 | 8.0 | 10.0 | 0.00 | 0.01 | 0.01 | 86 | 1016.2 |
| 20260901225717 | 83 | 47 | 7.0 | 11.0 | 0.00 | 0.01 | 0.01 | 86 | 1016.1 |
| 20260901225221 | 83 | 51 | 8.0 | 13.0 | 0.00 | 0.01 | 0.01 | 86 | 1016.1 |
| 20260901224726 | 83 | 42 | 8.0 | 13.0 | 0.00 | 0.01 | 0.01 | 85 | 1016.2 |